Weather History for PAHO - October, 2014

Change the Weather History Date:

Thursday, October 16, 2014

  Actual Average Record
Temperature  
Mean Temperature 46 °F -  
Max Temperature 51 °F 45 °F 58 °F (1969)
Min Temperature 42 °F 32 °F 17 °F (1996)
Degree Days  
Heating Degree Days 19    
Moisture  
Dew Point 36 °F    
Average Humidity 74    
Maximum Humidity 82    
Minimum Humidity 46    
Precipitation  
Precipitation 0.07 in - - ()
Sea Level Pressure  
Sea Level Pressure 29.48 in    
Wind  
Wind Speed 3 mph (NE)    
Max Wind Speed 9 mph    
Max Gust Speed -    
Visibility 10 miles    
Events Rain    
Averages and records for this station are not official NWS values.
T = Trace of Precipitation, MM = Missing Value Source: NWS Daily Summary

Daily Weather History Graph

Daily Weather History Graph

Search for Another Location

Airport or City:

Trip Planner

Search our weather history database for the weather conditions in past years. The results will help you decide how hot, cold, wet, or windy it might be!

Date:

Astronomy

Oct. 16, 2014 Rise Set
Actual Time 8:47 AM AKDT 6:54 PM AKDT
Civil Twilight 8:05 AM AKDT 7:35 PM AKDT
Nautical Twilight 7:17 AM AKDT 8:23 PM AKDT
Astronomical Twilight 6:29 AM AKDT 9:11 PM AKDT
Moon 12:37 AM AKDT (10/16) 4:34 PM AKDT (10/16)
Length of Visible Light 11h 30m
Length of Day
10h 06m
Last Quarter, 40% of the Moon is Illuminated
Oct 16
Last Quarter
Oct 23
New
Oct 30
First Quarter
Nov 6
Full
Nov 14
Last Quarter

Hourly Weather History & Observations

Time (AKDT) Temp. Windchill Dew Point Humidity Pressure Visibility Wind Dir Wind Speed Gust Speed Precip Events Conditions
12:43 AM 43.0 °F 40.3 °F 36.0 °F 76% 29.47 in 9.0 mi NE 4.6 mph - 0.00 in Rain Light Rain
12:53 AM 43.0 °F 41.3 °F 36.0 °F 76% 29.47 in 10.0 mi NE 3.5 mph - 0.00 in   Overcast
1:53 AM 43.0 °F 40.3 °F 37.0 °F 80% 29.48 in 10.0 mi NE 4.6 mph - 0.00 in Rain Light Rain
2:53 AM 42.1 °F 39.2 °F 37.0 °F 82% 29.48 in 8.0 mi NE 4.6 mph - 0.02 in   Overcast
3:32 AM 42.1 °F - 37.0 °F 82% 29.48 in 10.0 mi Calm Calm - N/A   Overcast
3:53 AM 42.1 °F 40.2 °F 37.0 °F 82% 29.48 in 8.0 mi NNE 3.5 mph - 0.00 in Rain Light Rain
4:13 AM 42.1 °F 40.2 °F 37.0 °F 82% 29.48 in 8.0 mi NE 3.5 mph - 0.00 in Rain Light Rain
4:53 AM 43.0 °F - 37.0 °F 80% 29.48 in 10.0 mi Calm Calm - 0.02 in   Overcast
5:53 AM 43.0 °F - 37.9 °F 82% 29.48 in 7.0 mi Calm Calm - 0.01 in Rain Light Rain
6:39 AM 43.0 °F - 37.0 °F 80% 29.48 in 10.0 mi Calm Calm - 0.00 in   Overcast
6:53 AM 42.1 °F - 37.0 °F 82% 29.48 in 10.0 mi Calm Calm - 0.00 in   Overcast
7:53 AM 43.0 °F - 37.9 °F 82% 29.48 in 10.0 mi Calm Calm - 0.01 in   Overcast
8:28 AM 42.1 °F 40.2 °F 37.0 °F 82% 29.49 in 10.0 mi ENE 3.5 mph - 0.00 in   Overcast
8:53 AM 42.1 °F 39.2 °F 37.0 °F 82% 29.49 in 10.0 mi NNE 4.6 mph - 0.01 in Rain Light Rain
9:53 AM 42.1 °F - 37.0 °F 82% 29.49 in 10.0 mi Calm Calm - 0.00 in   Overcast
10:53 AM 44.1 °F 41.5 °F 37.9 °F 79% 29.50 in 10.0 mi NE 4.6 mph - N/A   Overcast
11:53 AM 45.0 °F 41.8 °F 37.9 °F 76% 29.50 in 10.0 mi NE 5.8 mph - N/A   Overcast
12:53 PM 46.9 °F - 39.0 °F 74% 29.50 in 10.0 mi ENE 9.2 mph - N/A   Overcast
1:53 PM 48.0 °F - 39.0 °F 71% 29.50 in 10.0 mi NE 5.8 mph - N/A   Mostly Cloudy
2:53 PM 48.9 °F - 36.0 °F 61% 29.49 in 10.0 mi ENE 3.5 mph - N/A   Mostly Cloudy
3:53 PM 50.0 °F - 33.1 °F 52% 29.48 in 10.0 mi SSE 3.5 mph - N/A   Overcast
4:53 PM 50.0 °F - 30.0 °F 46% 29.47 in 10.0 mi Calm Calm - N/A   Overcast
5:53 PM 48.9 °F - 34.0 °F 56% 29.46 in 10.0 mi West 3.5 mph - N/A   Overcast
6:53 PM 46.9 °F - 35.1 °F 63% 29.47 in 10.0 mi WSW 3.5 mph - N/A   Overcast
7:53 PM 46.9 °F - 36.0 °F 66% 29.46 in 10.0 mi Calm Calm - N/A   Overcast
8:53 PM 44.1 °F - 36.0 °F 73% 29.46 in 10.0 mi Calm Calm - N/A   Overcast
9:53 PM 44.1 °F - 35.1 °F 71% 29.47 in 10.0 mi Calm Calm - N/A   Overcast
10:53 PM 44.1 °F - 37.0 °F 76% 29.46 in 10.0 mi Calm Calm - 0.00 in   Overcast
11:53 PM 43.0 °F - 36.0 °F 76% 29.46 in 10.0 mi Calm Calm - N/A   Overcast